Location: Igri�s
(42.2144°N, 0.4320°W)
Time: 10:18:26
(UTC+00:00)

SPOT 5 - Pass Details

Date: 13 August 2020
Orbit: 624 x 814 km, 98.3° (Epoch: 19 September)

Event Time Altitude Azimuth Distance (km) Brightness Sun altitude
Exits shadow 21:19:51 44° 77° (ENE) 867 3.0 -21.7°
Maximum altitude 21:19:58 44° 71° (ENE) 866 3.0 -21.7°
Drops below altitude 10° 21:24:09 10° 359° (N) 2,034 5.8 -22.3°
Sets 21:26:27 0° 354° (N) 2,966 6.9 -22.6°
